Location: Long Sault Conservation Area
(44.0496°N, 78.7419°W)
Time: 14:01:39
(UTC-04:00)

Daily predictions for brighter satellites

Satellite Brightness Start Highest point End
(mag) Time Altitude Azimuth Time Altitude Azimuth Time Altitude Azimuth
Meteor 2-4 Rocket 3.9 20:27:15 10° N 20:33:07 83° E 20:39:02 10° SSE
Cosmos 1461 3.7 20:29:20 10° NNW 20:33:09 35° NE 20:36:49 10° ESE
Resurs 01 Rocket 2.6 20:29:27 10° S 20:33:45 51° W 20:38:07 10° NNW
Lacrosse 5 rocket 2.3 20:30:32 10° NNW 20:33:55 30° NNE 20:37:10 10° E
Cosmos 1934 Rocket 4.1 20:28:21 10° SSE 20:34:16 54° E 20:40:18 10° NNE
Envisat 4.3 20:32:04 10° ESE 20:36:01 24° ENE 20:40:00 10° NNE
Cosmos 1400 Rocket 4.4 20:32:24 10° SSW 20:36:19 43° WNW 20:40:14 10° N
Cosmos 1315 Rocket 3.1 20:32:41 10° SSW 20:36:40 74° W 20:40:45 10° N
Cosmos 2278 4.2 20:35:07 10° S 20:40:16 37° ESE 20:45:29 10° NE
Cosmos 1697 Rocket 4.3 20:38:22 10° SE 20:41:05 14° E 20:43:49 10° ENE
Tiangong 1 1.3 20:38:40 10° WSW 20:41:40 49° SSE 20:44:41 10° E
DELTA 2 R/B (1) 3.9 20:38:10 10° WSW 20:43:36 55° S 20:49:01 10° ESE
CZ-4 DEB 3.9 20:42:21 10° SE 20:45:02 26° ENE 20:47:44 10° NNE
USA 186 1.5 20:46:01 10° SSE 20:49:08 73° ENE 20:52:06 10° N
Meteor 1-23 Rocket 4.4 20:44:34 10° NNW 20:50:12 78° W 20:55:53 10° S
OTV 4 1.9 20:47:47 10° WSW 20:50:17 25° S 20:52:22 13° SE
H-2A R/B 2.8 20:47:04 10° SSE 20:50:55 90° WSW 20:54:52 10° NNW
CZ-4B DEB 4.0 20:49:15 10° S 20:52:24 45° W 20:55:35 10° NNW
Cosmos 2369 4.0 20:47:50 10° S 20:53:08 42° ESE 20:58:28 10° NE
Iridium 4 Rocket 4.0 20:49:49 10° NNE 20:54:42 37° E 20:59:09 10° SSE
ATLAS CENTAUR R/B 3.5 20:50:04 10° WSW 20:54:45 37° NW 20:59:19 10° NNE
EP 2 4.1 20:52:16 10° SSW 20:54:49 70° SE 20:57:40 10° NE
Cosmos 1939 Rocket 3.8 20:52:33 11° SE 20:56:03 31° ENE 20:59:45 10° N
Cosmos 1544 Rocket 3.6 20:51:55 10° S 20:56:17 89° E 21:00:43 10° N
SJ-11-01 4.5 20:58:07 10° SSE 21:02:40 53° ENE 21:07:15 10° N
Cosmos 1980 Rocket 3.9 21:02:28 12° E 21:02:46 12° E 21:05:02 10° ENE
CZ-2D R/B 4.1 21:02:07 10° S 21:05:54 53° W 21:09:44 10° NNW
NOSS 2-1 (D) 3.9 21:06:02 10° SW 21:09:54 65° NW 21:14:26 10° NNE
NOSS 2-1 (C) 3.9 21:07:02 10° SW 21:10:56 65° NW 21:15:27 10° NNE
Cosmos 1898 Rocket 4.2 21:06:12 10° N 21:11:08 37° ENE 21:14:34 18° ESE
ERS-1 Rocket 3.0 21:07:36 10° SSE 21:12:33 62° ENE 21:17:31 10° N
Cosmos 1821 Rocket 4.5 21:08:21 10° SSW 21:14:24 63° W 21:20:28 10° N
Cosmos 1346 Rocket 3.3 21:12:42 10° NNW 21:16:35 61° W 21:20:30 10° S
Cosmos 1605 Rocket 4.0 21:10:51 10° S 21:17:13 81° E 21:23:30 10° N
RESURS DK-1 3.8 21:18:19 10° N 21:21:41 23° NE 21:23:22 18° E
Cosmos 2100 Rocket 4.5 21:17:24 10° SSE 21:23:11 40° E 21:28:56 10° NNE
NOSS 2-1 (E) 4.4 21:23:06 10° SW 21:26:58 51° NW 21:31:34 10° NNE
Cosmos 2227 Rocket 2.3 21:21:43 10° NNW 21:27:24 75° WSW 21:32:24 13° SSE
YAOGAN 11 4.3 21:26:25 10° S 21:30:53 78° WSW 21:35:23 10° NNW
ALOS 4.2 21:29:32 10° SSW 21:33:36 29° W 21:37:42 10° NW
Cosmos 468 Rocket 4.4 21:29:36 10° S 21:34:21 39° ESE 21:39:06 10° NE
Cosmos 1500 3.2 21:34:20 23° SSE 21:36:25 54° E 21:40:08 10° NNE
Cosmos 1825 Rocket 4.3 21:32:54 10° N 21:37:00 35° ENE 21:38:16 29° ESE
BREEZE-M DEB (TANK) 4.1 21:24:25 10° SW 21:39:31 55° SSE 21:42:56 20° E
Cosmos 2082 4.0 21:34:26 10° NNW 21:40:00 64° WSW 21:44:33 15° S
Cosmos 1814 Rocket 4.5 21:37:52 18° SSE 21:41:20 39° ESE 21:46:16 10° NE
Cosmos 1656 3.6 21:36:06 10° S 21:41:37 59° ESE 21:47:06 10° NNE
Cosmos 2297 Rocket 2.3 21:37:36 10° NNW 21:43:16 78° WSW 21:47:09 21° SSE
Cosmos 1953 Rocket 4.4 21:41:14 10° N 21:45:14 32° ENE 21:45:59 30° E
USA 215 3.8 21:42:02 20° E 21:46:30 51° NNE 21:52:46 10° NW
Lacrosse 5 2.3 21:44:26 10° NW 21:49:25 52° NE 21:51:36 30° E
H-2A R/B 1.8 21:49:23 34° SSE 21:51:08 82° ENE 21:55:17 10° NNW
Cosmos 1340 3.3 21:47:49 10° N 21:51:22 36° ENE 21:51:29 36° E
deb Chang Zheng 4 3.5 21:49:41 10° NNE 21:54:09 73° ESE 21:57:04 21° S
Cosmos 1626 Rocket 4.4 21:50:27 10° NNW 21:54:43 48° W 21:58:22 13° SSW
SPOT 5 2.9 21:52:31 30° SSE 21:55:03 75° ENE 21:59:56 10° N
Cosmos 1515 4.2 21:53:23 10° NNW 21:57:11 58° W 21:59:10 26° SSW
Cosmos 858 Rocket 4.4 21:52:18 10° NNW 21:57:37 81° ENE 21:59:55 35° SSE
Cosmos 2298 Rocket 4.0 21:52:54 10° NNW 21:58:15 83° WSW 22:00:55 30° SSE
Cosmos 1975 3.9 21:57:24 10° SSW 22:01:22 46° WNW 22:05:21 10° N
Cosmos 1459 Rocket 3.8 21:59:01 17° S 22:03:49 76° E 22:09:56 10° N
Cosmos 1758 Rocket 4.0 22:00:25 10° N 22:04:35 42° ENE 22:04:48 42° E
Nimbus 7 Rocket 4.4 21:59:46 10° NNE 22:05:51 83° ESE 22:11:56 10° SSW
Cosmos 1743 2.6 22:06:26 64° SE 22:06:48 70° E 22:10:43 10° NNE
H-2A R/B 3.0 22:10:13 29° ENE 22:10:41 30° ENE 22:14:57 10° N
YAOGAN 6 2.4 22:12:12 80° SSE 22:12:24 90° ENE 22:16:08 10° NNW
Lacrosse 5 rocket 1.9 22:09:44 10° WNW 22:13:11 38° SW 22:13:22 37° SW
Envisat 3.8 22:11:14 18° SSW 22:14:44 47° W 22:19:39 10° NNW
GEOS 3 Rocket 4.1 22:11:13 10° NE 22:15:07 39° E 22:15:07 39° E
Cosmos 2098 Rocket 4.3 22:14:26 36° SSE 22:16:59 53° E 22:22:55 10° NNE
Tiangong 1 2.5 22:14:58 10° W 22:16:48 32° WSW 22:16:48 32° WSW
MetOp-A 4.2 22:15:53 35° S 22:18:12 78° WSW 22:23:35 10° NNW
Cosmos 1937 Rocket 3.5 22:14:10 10° NNW 22:19:27 83° WSW 22:21:02 47° S
Cosmos 1842 3.9 22:19:35 10° N 22:22:45 45° NE 22:22:45 45° NE
Cosmos 1697 Rocket 2.6 22:18:34 10° SSW 22:24:14 86° WNW 22:29:55 10° NNE
Landsat 7 4.3 22:24:24 43° ENE 22:24:28 43° ENE 22:28:59 10° N
Cosmos 2058 Rocket 3.5 22:25:44 48° ENE 22:25:44 48° ENE 22:29:30 10° NNE
Cosmos 1802 Rocket 4.0 22:20:59 22° S 22:25:24 87° W 22:31:54 10° N
Cosmos 2150 Rocket 4.5 22:20:24 10° NNW 22:25:26 54° WSW 22:27:16 35° SSW
PSLV R/B 4.4 22:26:51 40° NW 22:26:51 40° NW 22:29:02 10° NNW
SL-16 R/B 4.0 22:29:58 16° ENE 22:29:58 16° ENE 22:31:36 10° NE
CZ-4 R/B 4.5 22:23:01 10° NNE 22:26:36 39° ENE 22:26:36 39° ENE
SPOT 1/Viking Rocket 3.5 22:28:06 55° SSE 22:29:18 88° ENE 22:34:33 10° NNW
DELTA 2 R/B (1) 4.1 22:24:26 10° W 22:29:38 42° SSW 22:29:48 41° SSW
NOAA 11 4.1 22:29:44 54° SSE 22:31:03 85° ENE 22:36:34 10° NNW
ASTEX 1 3.5 22:26:24 10° N 22:31:26 77° W 22:33:04 43° SSW
SL-08 R/B 4.4 22:30:45 42° S 22:32:58 77° E 22:39:10 10° N
Cosmos 2084 3.9 22:29:26 10° NW 22:33:22 49° WSW 22:33:22 49° WSW
SL-08 RB Rocket 3.6 22:35:12 77° ESE 22:35:21 78° ENE 22:40:02 10° N
Meteor 1-15 Rocket 4.4 22:35:41 55° ESE 22:36:07 56° E 22:41:53 10° NNE
Cosmos 990 Rocket 4.0 22:31:40 10° NNW 22:36:57 79° WSW 22:37:48 62° S
Cosmos 1606 Rocket 3.7 22:38:14 65° WSW 22:38:39 71° W 22:43:05 10° N
Terra 2.5 22:40:15 42° NE 22:40:15 42° NE 22:44:21 10° N
CZ-4B R/B 3.2 22:39:24 10° NNE 22:44:01 81° ENE 22:44:01 81° ENE
Cosmos 1980 Rocket 2.1 22:44:07 47° SSW 22:45:51 87° ESE 22:51:36 10° NNE
Cosmos 2016 Rocket 4.1 22:43:29 31° SSW 22:46:30 72° W 22:52:42 10° N
CARTOSAT-1 4.4 22:50:34 43° NNE 22:50:34 43° NNE 22:53:49 10° N
ARGOS 3.3 22:49:32 56° SSW 22:50:29 67° WSW 22:55:52 10° NNW
Cosmos 1125 Rocket 3.6 22:54:23 10° NNW 22:59:15 67° NE 22:59:15 67° NE
RESURS DK-1 3.7 22:56:03 10° NW 22:59:18 34° W 22:59:18 34° W
Cosmos 1666 4.2 23:02:40 34° NNW 23:02:40 34° NNW 23:05:03 10° N
Cosmos 1726 Rocket 4.4 23:03:16 45° W 23:03:24 45° WNW 23:07:39 10° N
Cosmos 1763 Rocket 3.6 23:04:52 63° W 23:05:20 66° WNW 23:10:24 10° NNE
CZ-4C R/B 4.2 23:07:43 55° NNW 23:07:43 55° NNW 23:11:14 10° NNW
Tsikada Rocket 4.2 23:04:58 10° NNW 23:11:22 68° W 23:12:34 56° SW
Cosmos 2263 Rocket 2.8 23:09:43 10° NNW 23:14:41 44° NE 23:14:41 44° NE
DMSP B5D2-2 4.5 23:09:48 10° NNE 23:13:58 55° NE 23:13:58 55° NE
Cosmos 2322 Rocket 3.0 23:18:33 39° NE 23:18:33 39° NE 23:22:09 10° NNE
Cosmos 2360 4.3 23:19:45 69° W 23:20:10 72° WNW 23:25:55 10° NNE
Cosmos 841 Rocket 4.1 23:24:39 50° W 23:25:10 52° WNW 23:30:17 10° NNE
USA 215 3.3 23:29:22 60° SW 23:29:26 60° SW 23:35:54 10° NW
Lacrosse 5 3.4 23:27:43 10° WNW 23:30:48 27° W 23:30:48 27° W
GP-B 4.5 23:29:11 10° N 23:31:51 36° N 23:31:51 36° N
H-2A R/B 3.3 23:50:51 33° WNW 23:50:51 33° WNW 23:54:33 10° NNW
Cosmos 2278 Rocket 4.4 23:52:30 10° N 23:55:32 14° NE 23:56:46 14° NE
